Location: Unspecified
(0.0000°N, 0.0000°E)
Time: 11:27:07
(UTC+00:00)

SRMSAT - Pass Details

Date: 16 July 2019
Orbit: 848 x 865 km, 20.0° (Epoch: 07 December)

Event Time Altitude Azimuth Distance (km) Brightness Sun altitude
Exits shadow 04:05:38 - 330° (NNW) 2,545 ? -27.8°
Reaches altitude 10° 04:06:01 10° 333° (NNW) 2,454 ? -27.8°
Maximum altitude 04:09:56 18° 15° (NNE) 1,945 ? -26.9°
Drops below altitude 10° 04:13:51 10° 57° (ENE) 2,455 ? -26.0°
Sets 04:17:14 0° 75° (ENE) 3,392 ? -25.2°
